THY2681 LTCR-LTFM

Flight info

Callsign THY2681
Flight time N/A
Altitude 36000
Route DYB UW73 GEM UL614 BAG UL605 YAVRU UL615 ERSEN
Aircraft B738/M-SDE2E3FGHIRWXY/LB1

Departure

Time N/A
Airport Mardin Airport (LTCR)

Arrival

Time 2026-05-05 13:27
Airport İstanbul Airport (LTFM)
Time Latitude Longitude Altitude Speed Heading
2026-05-05 12:18 38.35981 37.44667 29939 ft 454 kts 295°
2026-05-05 12:18 38.37540 37.41093 29942 ft 462 kts 296°
2026-05-05 12:19 38.40682 37.33904 29935 ft 469 kts 295°
2026-05-05 12:19 38.42290 37.30221 29932 ft 481 kts 295°
2026-05-05 12:19 38.43919 37.26487 29913 ft 484 kts 296°
2026-05-05 12:20 38.47223 37.18901 29904 ft 486 kts 296°
2026-05-05 12:20 38.50497 37.11367 29896 ft 486 kts 296°
2026-05-05 12:21 38.53778 37.03793 29916 ft 488 kts 296°
2026-05-05 12:21 38.57048 36.96221 29912 ft 487 kts 296°
2026-05-05 12:22 38.60323 36.88618 29909 ft 484 kts 296°
2026-05-05 12:22 38.63558 36.81090 29894 ft 484 kts 296°
2026-05-05 12:23 38.66787 36.73560 29866 ft 481 kts 297°
2026-05-05 12:23 38.69987 36.66078 29887 ft 482 kts 297°
2026-05-05 12:24 38.73203 36.58535 29871 ft 482 kts 297°
2026-05-05 12:24 38.75978 36.52011 29892 ft 481 kts 297°
2026-05-05 12:25 38.79166 36.44502 29900 ft 481 kts 297°
2026-05-05 12:25 38.82357 36.36969 29914 ft 480 kts 297°
2026-05-05 12:26 38.85517 36.29490 29889 ft 479 kts 297°
2026-05-05 12:26 38.88702 36.21934 29896 ft 479 kts 297°
2026-05-05 12:27 38.91842 36.14469 29897 ft 478 kts 297°
2026-05-05 12:27 38.95001 36.06939 29916 ft 480 kts 297°
2026-05-05 12:28 38.98170 35.99368 29913 ft 480 kts 297°
2026-05-05 12:28 39.01320 35.91826 29923 ft 480 kts 297°
2026-05-05 12:29 39.04464 35.84278 29921 ft 479 kts 297°
2026-05-05 12:29 39.07594 35.76746 29913 ft 477 kts 297°
2026-05-05 12:30 39.10718 35.69209 29916 ft 476 kts 297°
2026-05-05 12:30 39.13802 35.61749 29925 ft 473 kts 297°
2026-05-05 12:31 39.16895 35.54248 29936 ft 472 kts 298°
2026-05-05 12:31 39.19940 35.46847 29945 ft 471 kts 298°
2026-05-05 12:32 39.22983 35.39432 29952 ft 467 kts 298°
2026-05-05 12:32 39.26028 35.31994 29957 ft 468 kts 298°
2026-05-05 12:33 39.29071 35.24547 29957 ft 468 kts 299°
2026-05-05 12:33 39.32097 35.17124 29963 ft 468 kts 299°
2026-05-05 12:34 39.35131 35.09661 29962 ft 469 kts 299°
2026-05-05 12:34 39.38156 35.02202 29965 ft 469 kts 300°
2026-05-05 12:35 39.41165 34.94765 29968 ft 468 kts 300°
2026-05-05 12:35 39.44176 34.87304 29972 ft 467 kts 300°
2026-05-05 12:36 39.47176 34.79854 29969 ft 466 kts 300°
2026-05-05 12:36 39.50157 34.72434 29966 ft 466 kts 300°
2026-05-05 12:37 39.53145 34.64975 29964 ft 465 kts 301°
2026-05-05 12:37 39.56097 34.57588 29964 ft 464 kts 301°
2026-05-05 12:38 39.59049 34.50185 29968 ft 463 kts 301°
2026-05-05 12:38 39.62006 34.42755 29955 ft 461 kts 301°
2026-05-05 12:39 39.64663 34.35114 29953 ft 465 kts 296°
2026-05-05 12:39 39.66912 34.27209 29952 ft 464 kts 294°
2026-05-05 12:40 39.69073 34.19286 29952 ft 464 kts 294°
2026-05-05 12:40 39.71234 34.11452 29960 ft 464 kts 294°
2026-05-05 12:41 39.73434 34.03586 29948 ft 461 kts 295°
2026-05-05 12:41 39.75638 33.95757 29945 ft 461 kts 295°
2026-05-05 12:42 39.77820 33.87923 29943 ft 463 kts 293°
2026-05-05 12:42 39.79624 33.79913 29944 ft 464 kts 290°
2026-05-05 12:43 39.81216 33.71773 29945 ft 464 kts 289°
2026-05-05 12:43 39.82782 33.63647 29949 ft 462 kts 290°
2026-05-05 12:44 39.84651 33.55774 29948 ft 457 kts 295°
2026-05-05 12:44 39.86946 33.48061 29950 ft 455 kts 297°
2026-05-05 12:45 39.89300 33.40472 29958 ft 454 kts 297°
2026-05-05 12:45 39.91659 33.32793 29955 ft 456 kts 296°
2026-05-05 12:46 39.93972 33.25145 29956 ft 454 kts 296°
2026-05-05 12:46 39.96278 33.17430 29961 ft 454 kts 296°
2026-05-05 12:47 39.98529 33.09838 29965 ft 453 kts 296°
2026-05-05 12:47 40.00797 33.02166 29967 ft 453 kts 296°
2026-05-05 12:48 40.03061 32.94485 29972 ft 453 kts 296°
2026-05-05 12:48 40.05320 32.86820 29968 ft 454 kts 297°
2026-05-05 12:49 40.07920 32.79395 29971 ft 447 kts 304°
2026-05-05 12:49 40.11245 32.72577 29963 ft 446 kts 309°
2026-05-05 12:50 40.14815 32.65972 29966 ft 444 kts 310°
2026-05-05 12:50 40.15421 32.64864 29968 ft 444 kts 310°
2026-05-05 12:51 40.22147 32.52420 29963 ft 446 kts 309°
2026-05-05 12:51 40.25699 32.45743 29960 ft 446 kts 309°
2026-05-05 12:52 40.29230 32.39054 29959 ft 447 kts 309°
2026-05-05 12:52 40.32758 32.32343 29961 ft 447 kts 308°
2026-05-05 12:53 40.36292 32.25602 29965 ft 448 kts 308°
2026-05-05 12:53 40.39841 32.18814 29965 ft 449 kts 308°
2026-05-05 12:54 40.45103 32.08719 29956 ft 450 kts 308°
2026-05-05 12:55 40.48621 32.01933 29960 ft 450 kts 308°
2026-05-05 12:55 40.52131 31.95149 29968 ft 450 kts 308°
2026-05-05 12:56 40.55636 31.88301 29968 ft 451 kts 306°
2026-05-05 12:56 40.58617 31.81029 29972 ft 456 kts 298°
2026-05-05 12:57 40.60876 31.73196 29986 ft 460 kts 293°
2026-05-05 12:57 40.62864 31.65162 29985 ft 459 kts 292°
2026-05-05 12:58 40.64798 31.57106 29989 ft 460 kts 292°
2026-05-05 12:58 40.66734 31.49069 29990 ft 462 kts 292°
2026-05-05 12:59 40.68684 31.41023 29988 ft 462 kts 292°
2026-05-05 12:59 40.70641 31.32969 30003 ft 462 kts 291°
2026-05-05 13:00 40.73582 31.20869 30006 ft 463 kts 291°
2026-05-05 13:01 40.77480 31.04747 30023 ft 463 kts 291°
2026-05-05 13:01 40.79428 30.96638 30026 ft 464 kts 291°
2026-05-05 13:02 40.81326 30.88685 30033 ft 443 kts 291°
2026-05-05 13:02 40.83184 30.80891 30038 ft 447 kts 291°
2026-05-05 13:03 40.85029 30.73119 30042 ft 445 kts 290°
2026-05-05 13:03 40.86443 30.65109 30018 ft 450 kts 282°
2026-05-05 13:04 40.86811 30.60991 29619 ft 447 kts 278°
2026-05-05 13:04 40.87024 30.56940 29066 ft 443 kts 276°
2026-05-05 13:04 40.87167 30.52891 28333 ft 443 kts 276°
2026-05-05 13:04 40.87282 30.48858 27479 ft 445 kts 275°
2026-05-05 13:05 40.87389 30.44800 26533 ft 448 kts 275°
2026-05-05 13:05 40.87500 30.40668 25514 ft 452 kts 275°
2026-05-05 13:05 40.87614 30.36535 24458 ft 456 kts 275°
2026-05-05 13:05 40.87735 30.32340 23405 ft 460 kts 274°
2026-05-05 13:06 40.87857 30.28151 22851 ft 451 kts 274°
2026-05-05 13:06 40.87979 30.24002 22262 ft 445 kts 274°
2026-05-05 13:06 40.88100 30.20001 21627 ft 440 kts 274°
2026-05-05 13:06 40.88224 30.15976 20978 ft 436 kts 274°
2026-05-05 13:07 40.88345 30.11995 20330 ft 432 kts 274°
2026-05-05 13:07 40.88462 30.08066 19675 ft 428 kts 274°
2026-05-05 13:07 40.88575 30.04190 19039 ft 425 kts 274°
2026-05-05 13:07 40.88688 30.00295 18386 ft 421 kts 274°
2026-05-05 13:08 40.88795 29.96468 17751 ft 418 kts 274°
2026-05-05 13:08 40.88903 29.92616 17101 ft 415 kts 274°
2026-05-05 13:08 40.89008 29.88858 16453 ft 412 kts 274°
2026-05-05 13:08 40.89113 29.85091 15809 ft 409 kts 274°
2026-05-05 13:09 40.89216 29.81346 15144 ft 406 kts 274°
2026-05-05 13:09 40.89316 29.77688 14478 ft 403 kts 275°
2026-05-05 13:09 40.89417 29.73989 13843 ft 399 kts 275°
2026-05-05 13:09 40.89514 29.70375 13201 ft 395 kts 275°
2026-05-05 13:10 40.89611 29.66767 12570 ft 391 kts 274°
2026-05-05 13:10 40.89707 29.63214 11922 ft 388 kts 274°
2026-05-05 13:10 40.89801 29.59690 11442 ft 380 kts 274°
2026-05-05 13:10 40.89891 29.56242 11031 ft 370 kts 275°
2026-05-05 13:11 40.89975 29.52901 10861 ft 354 kts 275°
2026-05-05 13:11 40.90055 29.49721 10721 ft 339 kts 275°
2026-05-05 13:11 40.90137 29.46700 10575 ft 325 kts 275°
2026-05-05 13:11 40.90219 29.43774 10433 ft 312 kts 275°
2026-05-05 13:12 40.90297 29.40965 10294 ft 301 kts 276°
2026-05-05 13:12 40.90367 29.38270 10155 ft 290 kts 276°
2026-05-05 13:12 40.90432 29.35636 9932 ft 283 kts 276°
2026-05-05 13:12 40.90498 29.33025 9536 ft 283 kts 275°
2026-05-05 13:13 40.90562 29.30434 9158 ft 281 kts 275°
2026-05-05 13:13 40.90622 29.27865 8811 ft 279 kts 275°
2026-05-05 13:13 40.90678 29.25310 8450 ft 277 kts 275°
2026-05-05 13:13 40.90733 29.22768 8100 ft 275 kts 275°
2026-05-05 13:14 40.90787 29.20263 7751 ft 273 kts 275°
2026-05-05 13:14 40.90842 29.17747 7400 ft 271 kts 275°
2026-05-05 13:14 40.90894 29.15258 7057 ft 269 kts 275°
2026-05-05 13:14 40.90939 29.12781 6712 ft 267 kts 274°
2026-05-05 13:15 40.90983 29.10320 6376 ft 265 kts 274°
2026-05-05 13:15 40.91030 29.07904 6041 ft 264 kts 275°
2026-05-05 13:15 40.91081 29.05485 5734 ft 261 kts 275°
2026-05-05 13:15 40.91129 29.03121 5613 ft 250 kts 275°
2026-05-05 13:16 40.91190 29.00890 5516 ft 239 kts 277°
2026-05-05 13:16 40.91338 28.98732 5235 ft 237 kts 279°
2026-05-05 13:16 40.91537 28.96549 4942 ft 236 kts 281°
2026-05-05 13:16 40.91737 28.94408 4648 ft 235 kts 280°
2026-05-05 13:17 40.91930 28.92277 4373 ft 234 kts 280°
2026-05-05 13:17 40.92117 28.90141 4084 ft 233 kts 279°
2026-05-05 13:17 40.92298 28.88032 3972 ft 228 kts 279°
2026-05-05 13:17 40.92479 28.85948 3979 ft 233 kts 279°
2026-05-05 13:18 40.92665 28.83816 3976 ft 233 kts 280°
2026-05-05 13:18 40.92866 28.81673 3976 ft 233 kts 283°
2026-05-05 13:18 40.93322 28.79687 3966 ft 223 kts 304°
2026-05-05 13:18 40.94398 28.78295 3989 ft 214 kts 331°
2026-05-05 13:19 40.95707 28.77372 3977 ft 214 kts 334°
2026-05-05 13:19 40.97002 28.76514 3982 ft 199 kts 339°
2026-05-05 13:19 40.98272 28.76078 3967 ft 180 kts 358°
2026-05-05 13:19 40.99468 28.76125 3976 ft 168 kts
2026-05-05 13:20 41.00648 28.76163 3982 ft 166 kts 360°
2026-05-05 13:20 41.01809 28.76143 3976 ft 169 kts 359°
2026-05-05 13:20 41.02945 28.76114 3995 ft 156 kts 359°
2026-05-05 13:20 41.04008 28.76092 3966 ft 146 kts 359°
2026-05-05 13:21 41.05025 28.76072 3981 ft 147 kts 359°
2026-05-05 13:21 41.06034 28.76053 3980 ft 146 kts 359°
2026-05-05 13:21 41.07046 28.76035 3989 ft 140 kts 359°
2026-05-05 13:21 41.08046 28.76016 3957 ft 143 kts 359°
2026-05-05 13:22 41.09032 28.75998 3748 ft 143 kts 359°
2026-05-05 13:22 41.10008 28.75979 3495 ft 134 kts 359°
2026-05-05 13:22 41.10940 28.75961 3375 ft 134 kts 359°
2026-05-05 13:22 41.11879 28.75944 3179 ft 135 kts 359°
2026-05-05 13:23 41.12804 28.75926 2986 ft 132 kts 359°
2026-05-05 13:23 41.13736 28.75909 2811 ft 134 kts 360°
2026-05-05 13:23 41.14674 28.75890 2621 ft 133 kts 360°
2026-05-05 13:23 41.15602 28.75870 2436 ft 134 kts
2026-05-05 13:24 41.16545 28.75853 2255 ft 133 kts 360°
2026-05-05 13:24 41.17485 28.75839 2072 ft 134 kts 359°
2026-05-05 13:24 41.18417 28.75812 1853 ft 134 kts
2026-05-05 13:24 41.19343 28.75775 1626 ft 132 kts
2026-05-05 13:25 41.20278 28.75786 1539 ft 133 kts
2026-05-05 13:25 41.21208 28.75786 1273 ft 133 kts 359°
2026-05-05 13:25 41.22118 28.75757 1083 ft 130 kts 359°
2026-05-05 13:25 41.23033 28.75740 935 ft 132 kts
2026-05-05 13:26 41.23970 28.75715 760 ft 131 kts 359°
2026-05-05 13:26 41.24896 28.75695 593 ft 133 kts
2026-05-05 13:26 41.25796 28.75682 416 ft 126 kts
2026-05-05 13:26 41.26661 28.75662 333 ft 114 kts 359°
2026-05-05 13:27 41.27216 28.75651 333 ft 53 kts 359°
2026-05-05 13:27 41.27460 28.75647 333 ft 23 kts 359°
2026-05-05 13:27 41.27527 28.75646 333 ft 5 kts 359°
2026-05-05 13:27 41.27570 28.75645 333 ft 8 kts 357°
2026-05-05 13:28 41.27614 28.75592 333 ft 7 kts 287°
2026-05-05 13:28 41.27612 28.75581 333 ft 1 kts 258°
2026-05-05 13:28 41.27609 28.75516 333 ft 7 kts 270°
2026-05-05 13:28 41.27610 28.75449 333 ft 6 kts 271°
2026-05-05 13:29 41.27606 28.75391 333 ft 5 kts 247°
2026-05-05 13:29 41.27523 28.75363 333 ft 40 kts 181°
2026-05-05 13:29 41.27187 28.75367 333 ft 34 kts 180°
2026-05-05 13:29 41.27168 28.75366 333 ft 33 kts 181°
2026-05-05 13:30 41.27052 28.75305 333 ft 13 kts 265°
2026-05-05 13:30 41.27055 28.75191 333 ft 6 kts 271°
2026-05-05 13:30 41.27055 28.75188 333 ft 0 kts 271°
2026-05-05 13:30 41.27054 28.75186 333 ft 1 kts 267°
2026-05-05 13:31 41.26971 28.75146 333 ft 41 kts 177°
2026-05-05 13:31 41.26532 28.75102 333 ft 55 kts 192°
2026-05-05 13:31 41.26267 28.74999 333 ft 37 kts 197°
2026-05-05 13:31 41.26025 28.75049 333 ft 34 kts 162°
2026-05-05 13:32 41.25803 28.75147 333 ft 32 kts 166°
2026-05-05 13:32 41.25634 28.75119 333 ft 18 kts 237°
2026-05-05 13:32 41.25677 28.75031 333 ft 9 kts 357°
2026-05-05 13:32 41.25738 28.75028 333 ft 4 kts
2026-05-05 13:33 41.25739 28.75028 333 ft 0 kts